| time (UTC) | temp C | wind direction | speed KPH | gust KPH | rain 1hr cm | rain 24hr cm | rain mn cm | humidity % | barometer mb |
| 20260504081519 | 15 | 228 | 8.0 | 17.7 | 0.00 | 0.00 | 0.00 | 61 | 1012.0 |
| 20260504044559 | 15 | 202 | 6.4 | 12.9 | 0.00 | 0.00 | 0.00 | 58 | 1013.4 |
| 20260504043055 | 15 | 172 | 4.8 | 12.9 | 0.00 | 0.00 | 0.00 | 58 | 1013.5 |
| 20260504041549 | 15 | 217 | 3.2 | 9.7 | 0.00 | 0.00 | 0.00 | 59 | 1013.6 |
| 20260504040103 | 15 | 182 | 4.8 | 12.9 | 0.00 | 0.00 | 0.00 | 59 | 1013.8 |
| 20260504034610 | 13 | 195 | 4.8 | 9.7 | 0.00 | 0.00 | 0.00 | 62 | 1013.9 |
| 20260504033046 | 13 | 189 | 3.2 | 9.7 | 0.00 | 0.00 | 0.00 | 61 | 1014.0 |
| 20260504031546 | 13 | 187 | 3.2 | 8.0 | 0.00 | 0.00 | 0.00 | 61 | 1014.2 |
| 20260504024550 | 14 | 170 | 1.6 | 3.2 | 0.00 | 0.00 | 0.00 | 59 | 1014.2 |
| 20260504023045 | 14 | 168 | 0.0 | 1.6 | 0.00 | 0.00 | 0.00 | 57 | 1014.0 |
| 20260504021549 | 15 | 151 | 1.6 | 4.8 | 0.00 | 0.00 | 0.00 | 57 | 1013.9 |
| 20260504020043 | 15 | 168 | 1.6 | 4.8 | 0.00 | 0.00 | 0.00 | 54 | 1013.9 |
| 20260504014543 | 15 | 187 | 1.6 | 6.4 | 0.00 | 0.00 | 0.00 | 53 | 1013.9 |
| 20260504013050 | 16 | 172 | 0.0 | 1.6 | 0.00 | 0.00 | 0.00 | 52 | 1013.7 |
| 20260504011542 | 16 | 184 | 1.6 | 4.8 | 0.00 | 0.00 | 0.00 | 50 | 1013.7 |
| 20260504010041 | 17 | 191 | 1.6 | 8.0 | 0.00 | 0.00 | 0.00 | 47 | 1013.7 |
| 20260504004540 | 17 | 191 | 4.8 | 11.3 | 0.00 | 0.00 | 0.00 | 44 | 1013.7 |
| 20260504003038 | 18 | 205 | 3.2 | 9.7 | 0.00 | 0.00 | 0.00 | 43 | 1013.9 |
| 20260504001538 | 18 | 178 | 6.4 | 14.5 | 0.00 | 0.00 | 0.00 | 42 | 1014.0 |
| 20260504000035 | 19 | 207 | 6.4 | 14.5 | 0.00 | 0.00 | 0.00 | 44 | 1014.2 |
| 20260503234534 | 20 | 207 | 6.4 | 14.5 | 0.00 | 0.00 | 0.00 | 41 | 1014.2 |
| 20260503233036 | 20 | 181 | 6.4 | 14.5 | 0.00 | 0.00 | 0.00 | 38 | 1014.4 |
| 20260503231533 | 21 | 210 | 6.4 | 14.5 | 0.00 | 0.00 | 0.00 | 39 | 1014.6 |
| 20260503230029 | 21 | 224 | 9.7 | 16.1 | 0.00 | 0.00 | 0.00 | 38 | 1014.7 |
| 20260503224527 | 21 | 204 | 11.3 | 19.3 | 0.00 | 0.00 | 0.00 | 38 | 1014.9 |
| 20260503223026 | 21 | 216 | 6.4 | 16.1 | 0.00 | 0.00 | 0.00 | 40 | 1014.9 |
| 20260503221526 | 21 | 194 | 9.7 | 17.7 | 0.00 | 0.00 | 0.00 | 38 | 1014.9 |
| 20260503220022 | 21 | 217 | 8.0 | 16.1 | 0.00 | 0.00 | 0.00 | 38 | 1015.2 |
| 20260503214519 | 21 | 177 | 6.4 | 19.3 | 0.00 | 0.00 | 0.00 | 43 | 1015.4 |
| 20260503213017 | 21 | 221 | 8.0 | 22.5 | 0.00 | 0.00 | 0.00 | 40 | 1015.7 |
| 20260503211515 | 21 | 224 | 9.7 | 20.9 | 0.00 | 0.00 | 0.00 | 38 | 1016.1 |
| 20260503210015 | 20 | 195 | 8.0 | 19.3 | 0.00 | 0.00 | 0.00 | 41 | 1016.3 |
| 20260503204510 | 20 | 203 | 9.7 | 19.3 | 0.00 | 0.00 | 0.00 | 41 | 1016.6 |
| 20260503203007 | 20 | 222 | 9.7 | 19.3 | 0.00 | 0.00 | 0.00 | 41 | 1017.0 |
| 20260503201503 | 20 | 188 | 9.7 | 19.3 | 0.00 | 0.00 | 0.00 | 43 | 1017.4 |
| 20260503200100 | 20 | 255 | 9.7 | 16.1 | 0.00 | 0.00 | 0.00 | 39 | 1017.8 |
| 20260503194559 | 20 | 239 | 6.4 | 20.9 | 0.00 | 0.00 | 0.00 | 39 | 1018.2 |
| 20260503193109 | 20 | 210 | 8.0 | 19.3 | 0.00 | 0.00 | 0.00 | 42 | 1018.5 |
| 20260503191553 | 20 | 203 | 8.0 | 17.7 | 0.00 | 0.00 | 0.00 | 43 | 1018.6 |
| 20260503190106 | 19 | 211 | 9.7 | 20.9 | 0.00 | 0.00 | 0.00 | 45 | 1018.7 |
| 20260503184548 | 19 | 217 | 3.2 | 19.3 | 0.00 | 0.00 | 0.00 | 47 | 1019.0 |
| 20260503183057 | 18 | 188 | 6.4 | 22.5 | 0.00 | 0.00 | 0.00 | 43 | 1019.2 |
| 20260503181542 | 18 | 213 | 9.7 | 20.9 | 0.00 | 0.00 | 0.00 | 42 | 1019.6 |
| 20260503180051 | 18 | 241 | 6.4 | 20.9 | 0.00 | 0.00 | 0.00 | 48 | 1019.7 |
| 20260503174539 | 18 | 268 | 11.3 | 22.5 | 0.00 | 0.00 | 0.00 | 47 | 1019.9 |
| 20260503173053 | 18 | 212 | 9.7 | 17.7 | 0.00 | 0.00 | 0.00 | 47 | 1020.3 |
| 20260503171542 | 17 | 186 | 8.0 | 17.7 | 0.00 | 0.00 | 0.00 | 50 | 1020.4 |